START_TIME,STEP,MOV.,M6,t_acc.,M7,t_acc.,M19,t_acc.,H36,t_acc.
1979-07-27 12:00:26.360 ,0,0,0.,12.0,0.,12.0,0.,12.0,0.,12.0
1979-07-27 12:00:38.360 ,0,0,0.,12.0,0.,12.0,0.,12.0,0.,12.0
1979-07-27 12:00:50.360 ,1,1,0.,12.0,0.,12.0,0.,12.0,0.,12.0
1979-07-27 12:01:02.360 ,1,1,0.,12.0,0.,12.0,0.,12.0,0.,12.0
1979-07-27 12:01:14.360 ,1,0,0.,12.0,0.,12.0,0.,12.0,0.,12.0
1979-07-27 12:01:26.360 ,1,0,0.,12.0,0.,12.0,0.,12.0,0.,12.0
1979-07-27 12:01:38.360 ,2,1,0.,12.0,0.,12.0,0.,12.0,0.,12.0
1979-07-27 12:01:50.360 ,2,1,0.,12.0,0.,12.0,0.,12.0,0.,12.0
1979-07-27 12:02:02.360 ,2,0,0.,12.0,0.,12.0,0.,12.0,0.,12.0
1979-07-27 12:02:14.360 ,2,0,0.,12.0,0.,12.0,0.,12.0,0.,12.0
1979-07-27 12:02:26.360 ,3,1,0.,12.0,0.,12.0,0.,12.0,0.,12.0
1979-07-27 12:02:38.360 ,3,1,0.,12.0,0.,12.0,0.,12.0,0.,12.0
1979-07-27 12:02:50.360 ,3,0,0.,12.0,0.,12.0,0.,12.0,0.,12.0
1979-07-27 12:03:02.360 ,3,0,0.,12.0,0.,12.0,0.,12.0,0.,12.0
1979-07-27 12:03:14.360 ,4,1,0.,12.0,0.,12.0,0.,12.0,0.,12.0
1979-07-27 12:03:26.360 ,4,1,0.,12.0,0.,12.0,0.,12.0,0.,12.0
1979-07-27 12:03:38.360 ,4,0,0.,12.0,0.,12.0,0.,12.0,0.,12.0
1979-07-27 12:03:50.360 ,4,0,0.,12.0,0.,12.0,0.,12.0,0.,12.0
1979-07-27 12:04:02.360 ,5,1,0.,12.0,0.,12.0,0.,12.0,0.,12.0
1979-07-27 12:04:14.360 ,5,1,0.,12.0,0.,12.0,0.,12.0,0.,12.0
1979-07-27 12:04:26.360 ,5,0,0.,12.0,0.,12.0,0.,12.0,0.,12.0
1979-07-27 12:04:38.360 ,5,0,0.,12.0,0.,12.0,0.,12.0,0.,12.0
1979-07-27 12:04:50.360 ,6,1,0.,12.0,0.,12.0,0.,12.0,0.,12.0
1979-07-27 12:05:02.360 ,6,1,0.,12.0,0.,12.0,0.,12.0,0.,12.0
1979-07-27 12:05:14.360 ,6,0,0.,12.0,0.,12.0,0.,12.0,0.,12.0
1979-07-27 12:05:26.360 ,6,0,0.,12.0,0.,12.0,0.,12.0,0.,12.0
1979-07-27 12:05:38.360 ,7,1,0.,12.0,0.,12.0,0.,12.0,0.,12.0
1979-07-27 12:05:50.360 ,7,1,0.,12.0,0.,12.0,0.,12.0,0.,12.0
1979-07-27 12:06:02.360 ,7,0,0.,12.0,0.,12.0,0.,12.0,0.,12.0
1979-07-27 12:06:14.360 ,7,0,0.,12.0,0.,12.0,0.,12.0,0.,12.0
1979-07-27 12:06:26.360 ,7,1,0.,12.0,0.,12.0,0.,12.0,0.,12.0
1979-07-27 12:06:38.360 ,7,1,0.,12.0,0.,12.0,0.,12.0,0.,12.0
1979-07-27 12:06:50.360 ,7,0,0.,12.0,0.,12.0,0.,12.0,0.,12.0
1979-07-27 12:07:02.360 ,7,0,0.,12.0,0.,12.0,0.,12.0,0.,12.0
1979-07-27 12:07:14.360 ,6,1,0.,12.0,0.,12.0,0.,12.0,0.,12.0
1979-07-27 12:07:26.360 ,6,1,0.,12.0,0.,12.0,0.,12.0,0.,12.0
1979-07-27 12:07:38.360 ,6,0,0.,12.0,0.,12.0,0.,12.0,0.,12.0
1979-07-27 12:07:50.360 ,6,0,0.,12.0,0.,12.0,0.,12.0,0.,12.0
1979-07-27 12:08:02.360 ,5,1,0.,12.0,0.,12.0,0.,12.0,0.,12.0
1979-07-27 12:08:14.360 ,5,1,0.,12.0,0.,12.0,0.,12.0,0.,12.0
1979-07-27 12:08:26.360 ,5,0,0.,12.0,0.,12.0,0.,12.0,0.,12.0
1979-07-27 12:08:38.360 ,5,0,0.,12.0,0.,12.0,0.,12.0,0.,12.0
1979-07-27 12:08:50.360 ,4,1,0.,12.0,0.,12.0,0.,12.0,0.,12.0
1979-07-27 12:09:02.360 ,4,1,0.,12.0,0.,12.0,0.,12.0,0.,12.0
1979-07-27 12:09:14.360 ,4,0,0.,12.0,0.,12.0,0.,12.0,0.,12.0
1979-07-27 12:09:26.360 ,4,0,0.,12.0,0.,12.0,0.,12.0,0.,12.0
1979-07-27 12:09:38.360 ,3,1,0.,12.0,0.,12.0,0.,12.0,0.,12.0
1979-07-27 12:09:50.360 ,3,1,0.,12.0,0.,12.0,0.,12.0,0.,12.0
1979-07-27 12:10:02.360 ,3,0,0.,12.0,0.,12.0,0.,12.0,0.,12.0
1979-07-27 12:10:14.360 ,3,0,0.,12.0,0.,12.0,0.,12.0,0.,12.0
1979-07-27 12:10:26.360 ,2,1,0.,12.0,0.,12.0,0.,12.0,0.,12.0
1979-07-27 12:10:38.360 ,2,1,0.,12.0,0.,12.0,0.,12.0,0.,12.0
1979-07-27 12:10:50.360 ,2,0,0.,12.0,0.,12.0,0.,12.0,0.,12.0
1979-07-27 12:11:02.360 ,2,0,0.,12.0,0.,12.0,0.,12.0,0.,12.0
1979-07-27 12:11:14.360 ,1,1,0.,12.0,0.,12.0,0.,12.0,0.,12.0
1979-07-27 12:11:26.360 ,1,1,0.,12.0,0.,12.0,0.,12.0,0.,12.0
1979-07-27 12:11:38.360 ,1,0,0.,12.0,0.,12.0,0.,12.0,0.,12.0
1979-07-27 12:11:50.360 ,1,0,0.,12.0,0.,12.0,0.,12.0,0.,12.0
1979-07-27 12:12:02.360 ,0,1,0.,12.0,0.,12.0,0.,12.0,0.,12.0
1979-07-27 12:12:14.360 ,0,1,0.,12.0,0.,12.0,0.,12.0,0.,12.0
1979-07-27 12:12:26.360 ,0,0,0.,12.0,0.,12.0,0.,12.0,0.,12.0
1979-07-27 12:12:38.360 ,0,0,0.,12.0,0.,12.0,0.,12.0,0.,12.0
1979-07-27 12:12:50.360 ,0,1,0.,12.0,0.,12.0,0.,12.0,0.,12.0
1979-07-27 12:13:02.360 ,0,1,0.,12.0,0.,12.0,0.,12.0,0.,12.0
1979-07-27 12:13:14.360 ,0,0,0.,12.0,0.,12.0,0.,12.0,0.,12.0
1979-07-27 12:13:26.360 ,0,0,0.,12.0,0.,12.0,0.,12.0,0.,12.0
1979-07-27 12:13:38.360 ,1,1,0.,12.0,0.,12.0,0.,12.0,0.,12.0
1979-07-27 12:13:50.360 ,1,1,0.,12.0,0.,12.0,0.,12.0,0.,12.0
1979-07-27 12:14:02.360 ,1,0,0.,12.0,0.,12.0,0.,12.0,0.,12.0
1979-07-27 12:14:14.360 ,1,0,0.,12.0,0.,12.0,0.,12.0,0.,12.0
1979-07-27 12:14:26.360 ,2,1,0.,12.0,0.,12.0,0.,12.0,0.,12.0
1979-07-27 12:14:38.360 ,2,1,0.,12.0,0.,12.0,0.,12.0,0.,12.0
1979-07-27 12:14:50.360 ,2,0,0.,12.0,0.,12.0,0.,12.0,0.,12.0
1979-07-27 12:15:02.360 ,2,0,0.,12.0,0.,12.0,0.,12.0,0.,12.0
1979-07-27 12:15:14.360 ,3,1,0.,12.0,0.,12.0,0.,12.0,0.,12.0
1979-07-27 12:15:26.360 ,3,1,0.,12.0,0.,12.0,0.,12.0,0.,12.0
1979-07-27 12:15:38.360 ,3,0,0.,12.0,0.,12.0,0.,12.0,0.,12.0
1979-07-27 12:15:50.360 ,3,0,0.,12.0,0.,12.0,0.,12.0,0.,12.0
1979-07-27 12:16:02.360 ,4,1,0.,12.0,0.,12.0,0.,12.0,0.,12.0
1979-07-27 12:16:14.360 ,4,1,0.,12.0,0.,12.0,0.,12.0,0.,12.0
1979-07-27 12:16:26.360 ,4,0,0.,12.0,0.,12.0,0.,12.0,0.,12.0
1979-07-27 12:16:38.360 ,4,0,0.,12.0,0.,12.0,0.,12.0,0.,12.0
1979-07-27 12:16:50.360 ,5,1,0.,12.0,0.,12.0,0.,12.0,0.,12.0
1979-07-27 12:17:02.360 ,5,1,0.,12.0,0.,12.0,0.,12.0,0.,12.0
1979-07-27 12:17:14.360 ,5,0,0.,12.0,0.,12.0,0.,12.0,0.,12.0
1979-07-27 12:17:26.360 ,5,0,0.,12.0,0.,12.0,0.,12.0,0.,12.0
1979-07-27 12:17:38.360 ,6,1,0.,12.0,0.,12.0,0.,12.0,0.,12.0
1979-07-27 12:17:50.360 ,6,1,0.,12.0,0.,12.0,0.,12.0,0.,12.0
1979-07-27 12:18:02.360 ,6,0,0.,12.0,0.,12.0,0.,12.0,0.,12.0
1979-07-27 12:18:14.360 ,6,0,0.,12.0,0.,12.0,0.,12.0,0.,12.0
1979-07-27 12:18:26.360 ,7,0,0.,12.0,0.,12.0,0.,12.0,0.,12.0
1979-07-27 12:18:38.360 ,7,0,0.,12.0,0.,12.0,0.,12.0,0.,12.0
1979-07-27 12:18:50.360 ,7,0,0.,12.0,0.,12.0,0.,12.0,0.,12.0
1979-07-27 12:19:02.360 ,7,0,0.,12.0,0.,12.0,0.,12.0,0.,12.0
1979-07-27 12:19:14.360 ,4,1,0.,12.0,0.,12.0,0.,12.0,0.,12.0
1979-07-27 12:19:26.360 ,4,1,0.,12.0,0.,12.0,0.,12.0,0.,12.0
1979-07-27 12:19:38.360 ,0,1,0.,12.0,0.,12.0,0.,12.0,0.,12.0
1979-07-27 12:19:50.360 ,0,1,0.,12.0,0.,12.0,0.,12.0,0.,12.0
1979-07-27 12:20:02.360 ,3,1,0.,12.0,0.,12.0,0.,12.0,0.,12.0
1979-07-27 12:20:14.360 ,3,1,0.,12.0,0.,12.0,0.,12.0,0.,12.0
1979-07-27 12:20:26.360 ,7,1,0.,12.0,0.,12.0,0.,12.0,0.,12.0
1979-07-27 12:20:38.360 ,7,1,0.,12.0,0.,12.0,0.,12.0,0.,12.0
1979-07-27 12:20:50.360 ,4,1,0.,12.0,0.,12.0,0.,12.0,0.,12.0
1979-07-27 12:21:02.360 ,4,1,0.,12.0,0.,12.0,0.,12.0,0.,12.0
1979-07-27 12:21:14.360 ,0,1,0.,12.0,0.,12.0,0.,12.0,0.,12.0
1979-07-27 12:21:26.360 ,0,1,0.,12.0,0.,12.0,0.,12.0,0.,12.0
1979-07-27 12:21:38.360 ,3,1,0.,12.0,0.,12.0,0.,12.0,0.,12.0
1979-07-27 12:21:50.360 ,3,1,0.,12.0,0.,12.0,0.,12.0,0.,12.0
1979-07-27 12:22:02.360 ,7,1,0.,12.0,0.,12.0,0.,12.0,0.,12.0
1979-07-27 12:22:14.360 ,7,1,0.,12.0,0.,12.0,0.,12.0,0.,12.0
1979-07-27 12:22:26.360 ,4,1,0.,12.0,0.,12.0,0.,12.0,0.,12.0
1979-07-27 12:22:38.360 ,4,1,0.,12.0,0.,12.0,0.,12.0,0.,12.0
1979-07-27 12:22:50.360 ,0,1,0.,12.0,0.,12.0,0.,12.0,0.,12.0
1979-07-27 12:23:02.360 ,0,1,0.,12.0,0.,12.0,0.,12.0,0.,12.0
1979-07-27 12:23:14.360 ,3,1,0.,12.0,0.,12.0,0.,12.0,0.,12.0
1979-07-27 12:23:26.360 ,3,1,0.,12.0,0.,12.0,0.,12.0,0.,12.0
1979-07-27 12:23:38.360 ,7,1,0.,12.0,0.,12.0,0.,12.0,0.,12.0
1979-07-27 12:23:50.360 ,7,1,0.,12.0,0.,12.0,0.,12.0,0.,12.0
1979-07-27 12:24:02.360 ,4,1,0.,12.0,0.,12.0,0.,12.0,0.,12.0
1979-07-27 12:24:14.360 ,4,1,0.,12.0,0.,12.0,0.,12.0,0.,12.0
1979-07-27 12:24:26.360 ,0,1,0.,12.0,0.,12.0,0.,12.0,0.,12.0
1979-07-27 12:24:38.360 ,0,1,0.,12.0,0.,12.0,0.,12.0,0.,12.0
1979-07-27 12:24:50.360 ,3,1,0.,12.0,0.,12.0,0.,12.0,0.,12.0
1979-07-27 12:25:02.360 ,3,1,0.,12.0,0.,12.0,0.,12.0,0.,12.0
1979-07-27 12:25:14.360 ,7,1,0.,12.0,0.,12.0,0.,12.0,0.,12.0
1979-07-27 12:25:26.360 ,7,1,0.,12.0,0.,12.0,0.,12.0,0.,12.0
1979-07-27 12:25:38.360 ,4,1,0.,12.0,0.,12.0,0.,12.0,0.,12.0
1979-07-27 12:25:50.360 ,4,1,0.,12.0,0.,12.0,0.,12.0,0.,12.0
1979-07-27 12:26:02.360 ,0,1,0.,12.0,0.,12.0,0.,12.0,0.,12.0
1979-07-27 12:26:14.360 ,0,1,0.,12.0,0.,12.0,0.,12.0,0.,12.0
1979-07-27 12:26:26.360 ,3,1,0.,12.0,0.,12.0,0.,12.0,0.,12.0
1979-07-27 12:26:38.360 ,3,1,0.,12.0,0.,12.0,0.,12.0,0.,12.0
1979-07-27 12:26:50.360 ,7,1,0.,12.0,0.,12.0,0.,12.0,0.,12.0
1979-07-27 12:27:02.360 ,7,1,0.,12.0,0.,12.0,0.,12.0,0.,12.0
1979-07-27 12:27:14.360 ,4,1,0.,12.0,0.,12.0,0.,12.0,0.,12.0
1979-07-27 12:27:26.360 ,4,1,0.,12.0,0.,12.0,0.,12.0,0.,12.0
1979-07-27 12:27:38.360 ,0,1,0.,12.0,0.,12.0,0.,12.0,0.,12.0
1979-07-27 12:27:50.360 ,0,1,0.,12.0,0.,12.0,0.,12.0,0.,12.0
1979-07-27 12:28:02.360 ,3,1,0.,12.0,0.,12.0,0.,12.0,0.,12.0
1979-07-27 12:28:14.360 ,3,1,0.,12.0,0.,12.0,0.,12.0,0.,12.0
1979-07-27 12:28:26.360 ,7,1,0.,12.0,0.,12.0,0.,12.0,0.,12.0
1979-07-27 12:28:38.360 ,7,1,0.,12.0,0.,12.0,0.,12.0,0.,12.0
1979-07-27 12:28:50.360 ,4,1,0.,12.0,0.,12.0,0.,12.0,0.,12.0
1979-07-27 12:29:02.360 ,4,1,0.,12.0,0.,12.0,0.,12.0,0.,12.0
1979-07-27 12:29:14.360 ,0,1,0.,12.0,0.,12.0,0.,12.0,0.,12.0
1979-07-27 12:29:26.360 ,0,1,0.,12.0,0.,12.0,0.,12.0,0.,12.0
1979-07-27 12:29:38.360 ,0,0,0.,12.0,0.,12.0,0.,12.0,0.,12.0
1979-07-27 12:29:50.360 ,0,0,0.,12.0,0.,12.0,0.,12.0,0.,12.0
1979-07-27 12:30:02.360 ,0,0,0.,12.0,0.,12.0,0.,12.0,0.,12.0
1979-07-27 12:30:14.360 ,0,0,0.,12.0,0.,12.0,0.,12.0,0.,12.0
1979-07-27 12:30:26.360 ,5,1,0.,12.0,0.,12.0,0.,12.0,0.,12.0
1979-07-27 12:30:38.360 ,5,1,0.,12.0,0.,12.0,0.,12.0,0.,12.0
1979-07-27 12:30:50.360 ,5,0,0.,12.0,0.,12.0,0.,12.0,0.,12.0
1979-07-27 12:31:02.360 ,5,0,0.,12.0,0.,12.0,0.,12.0,0.,12.0
1979-07-27 12:31:14.360 ,4,1,0.,12.0,0.,12.0,0.,12.0,0.,12.0
1979-07-27 12:31:26.360 ,4,1,0.,12.0,0.,12.0,0.,12.0,0.,12.0
1979-07-27 12:31:38.360 ,4,0,0.,12.0,0.,12.0,0.,12.0,0.,12.0
1979-07-27 12:31:50.360 ,4,0,0.,12.0,0.,12.0,0.,12.0,0.,12.0
1979-07-27 12:32:02.360 ,3,1,0.,12.0,0.,12.0,0.,12.0,0.,12.0
1979-07-27 12:32:14.360 ,3,1,0.,12.0,0.,12.0,0.,12.0,0.,12.0
1979-07-27 12:32:26.360 ,0,0,0.,12.0,0.,12.0,0.,12.0,0.,12.0
1979-07-27 12:32:38.360 ,0,0,0.,12.0,0.,12.0,0.,12.0,0.,12.0
1979-07-27 12:32:50.360 ,0,0,0.,12.0,0.,12.0,0.,12.0,0.,12.0
1979-07-27 12:33:02.360 ,0,0,0.,12.0,0.,12.0,0.,12.0,0.,12.0
1979-07-27 12:33:14.360 ,0,0,0.,12.0,8704.,12.0,0.,12.0,0.,12.0
1979-07-27 12:33:26.360 ,0,0,,0,,0,,0,,0
1979-07-27 12:33:38.360 ,0,0,0.,12.0,0.,12.0,0.,12.0,0.,12.0
1979-07-27 12:33:50.360 ,0,0,0.,12.0,0.,12.0,0.,12.0,0.,12.0
1979-07-27 12:34:02.360 ,0,0,0.,12.0,0.,12.0,0.,12.0,0.,12.0
1979-07-27 12:34:14.360 ,0,0,0.,12.0,0.,12.0,0.,12.0,0.,12.0
1979-07-27 12:34:26.360 ,0,1,0.,12.0,0.,12.0,0.,12.0,0.,12.0
1979-07-27 12:34:38.360 ,0,1,0.,12.0,0.,12.0,0.,12.0,0.,12.0
1979-07-27 12:34:50.360 ,0,0,0.,12.0,0.,12.0,0.,12.0,0.,12.0
1979-07-27 12:35:02.360 ,0,0,0.,12.0,0.,12.0,0.,12.0,0.,12.0
1979-07-27 12:35:14.360 ,0,1,0.,12.0,0.,12.0,0.,12.0,0.,12.0
1979-07-27 12:35:26.360 ,0,1,0.,12.0,0.,12.0,0.,12.0,0.,12.0
1979-07-27 12:35:38.360 ,0,0,0.,12.0,0.,12.0,0.,12.0,0.,12.0
1979-07-27 12:35:50.360 ,0,0,0.,12.0,0.,12.0,0.,12.0,0.,12.0
1979-07-27 12:36:02.360 ,1,1,0.,12.0,0.,12.0,0.,12.0,0.,12.0
1979-07-27 12:36:14.360 ,1,1,0.,12.0,0.,12.0,0.,12.0,0.,12.0
1979-07-27 12:36:26.360 ,1,0,0.,12.0,0.,12.0,0.,12.0,0.,12.0
1979-07-27 12:36:38.360 ,1,0,0.,12.0,0.,12.0,0.,12.0,0.,12.0
1979-07-27 12:36:50.360 ,2,1,0.,12.0,0.,12.0,0.,12.0,0.,12.0
1979-07-27 12:37:02.360 ,2,1,0.,12.0,0.,12.0,0.,12.0,0.,12.0
1979-07-27 12:37:14.360 ,2,0,0.,12.0,0.,12.0,0.,12.0,0.,12.0
1979-07-27 12:37:26.360 ,2,0,0.,12.0,0.,12.0,0.,12.0,0.,12.0
1979-07-27 12:37:38.360 ,3,1,0.,12.0,0.,12.0,0.,12.0,0.,12.0
1979-07-27 12:37:50.360 ,3,1,0.,12.0,0.,12.0,0.,12.0,0.,12.0
1979-07-27 12:38:02.360 ,3,0,0.,12.0,0.,12.0,0.,12.0,0.,12.0
1979-07-27 12:38:14.360 ,3,0,0.,12.0,0.,12.0,0.,12.0,0.,12.0
1979-07-27 12:38:26.360 ,4,1,0.,12.0,0.,12.0,0.,12.0,0.,12.0
1979-07-27 12:38:38.360 ,4,1,0.,12.0,0.,12.0,0.,12.0,0.,12.0
1979-07-27 12:38:50.360 ,4,0,0.,12.0,0.,12.0,0.,12.0,0.,12.0
1979-07-27 12:39:02.360 ,4,0,0.,12.0,0.,12.0,0.,12.0,0.,12.0
1979-07-27 12:39:14.360 ,5,1,0.,12.0,0.,12.0,0.,12.0,0.,12.0
1979-07-27 12:39:26.360 ,5,1,0.,12.0,0.,12.0,0.,12.0,0.,12.0
1979-07-27 12:39:38.360 ,5,0,0.,12.0,0.,12.0,0.,12.0,0.,12.0
1979-07-27 12:39:50.360 ,5,0,0.,12.0,0.,12.0,0.,12.0,0.,12.0
1979-07-27 12:40:02.360 ,6,1,0.,12.0,0.,12.0,0.,12.0,0.,12.0
1979-07-27 12:40:14.360 ,6,1,0.,12.0,0.,12.0,0.,12.0,0.,12.0
1979-07-27 12:40:26.360 ,6,0,0.,12.0,0.,12.0,0.,12.0,0.,12.0
1979-07-27 12:40:38.360 ,6,0,0.,12.0,0.,12.0,0.,12.0,0.,12.0
1979-07-27 12:40:50.360 ,7,1,0.,12.0,0.,12.0,0.,12.0,0.,12.0
1979-07-27 12:41:02.360 ,7,1,0.,12.0,0.,12.0,0.,12.0,0.,12.0
1979-07-27 12:41:14.360 ,7,0,0.,12.0,0.,12.0,0.,12.0,0.,12.0
1979-07-27 12:41:26.360 ,7,0,0.,12.0,0.,12.0,0.,12.0,0.,12.0
1979-07-27 12:41:38.360 ,7,1,0.,12.0,0.,12.0,0.,12.0,0.,12.0
1979-07-27 12:41:50.360 ,7,1,0.,12.0,0.,12.0,0.,12.0,0.,12.0
1979-07-27 12:42:02.360 ,7,0,0.,12.0,0.,12.0,0.,12.0,0.,12.0
1979-07-27 12:42:14.360 ,7,0,0.,12.0,0.,12.0,0.,12.0,0.,12.0
1979-07-27 12:42:26.360 ,6,1,0.,12.0,0.,12.0,0.,12.0,0.,12.0
1979-07-27 12:42:38.360 ,6,1,0.,12.0,0.,12.0,0.,12.0,0.,12.0
1979-07-27 12:42:50.360 ,6,0,0.,12.0,0.,12.0,0.,12.0,0.,12.0
1979-07-27 12:43:02.360 ,6,0,0.,12.0,0.,12.0,0.,12.0,0.,12.0
1979-07-27 12:43:14.360 ,5,1,0.,12.0,0.,12.0,0.,12.0,0.,12.0
1979-07-27 12:43:26.360 ,5,1,0.,12.0,0.,12.0,0.,12.0,0.,12.0
1979-07-27 12:43:38.360 ,5,0,0.,12.0,0.,12.0,0.,12.0,0.,12.0
1979-07-27 12:43:50.360 ,5,0,0.,12.0,0.,12.0,0.,12.0,0.,12.0
1979-07-27 12:44:02.360 ,4,1,0.,12.0,0.,12.0,0.,12.0,0.,12.0
1979-07-27 12:44:14.360 ,4,1,0.,12.0,0.,12.0,0.,12.0,0.,12.0
1979-07-27 12:44:26.360 ,4,0,0.,12.0,0.,12.0,0.,12.0,0.,12.0
1979-07-27 12:44:38.360 ,4,0,0.,12.0,0.,12.0,0.,12.0,0.,12.0
1979-07-27 12:44:50.360 ,3,1,0.,12.0,0.,12.0,0.,12.0,0.,12.0
1979-07-27 12:45:02.360 ,3,1,0.,12.0,0.,12.0,0.,12.0,0.,12.0
1979-07-27 12:45:14.360 ,3,0,0.,12.0,0.,12.0,0.,12.0,0.,12.0
1979-07-27 12:45:26.360 ,3,0,0.,12.0,0.,12.0,0.,12.0,0.,12.0
1979-07-27 12:45:38.360 ,2,1,0.,12.0,0.,12.0,0.,12.0,0.,12.0
1979-07-27 12:45:50.360 ,2,1,0.,12.0,0.,12.0,0.,12.0,0.,12.0
1979-07-27 12:46:02.360 ,2,0,0.,12.0,0.,12.0,0.,12.0,0.,12.0
1979-07-27 12:46:14.360 ,2,0,0.,12.0,0.,12.0,0.,12.0,0.,12.0
1979-07-27 12:46:26.360 ,1,1,0.,12.0,0.,12.0,0.,12.0,0.,12.0
1979-07-27 12:46:38.360 ,1,1,0.,12.0,0.,12.0,0.,12.0,0.,12.0
1979-07-27 12:46:50.360 ,1,0,0.,12.0,0.,12.0,0.,12.0,0.,12.0
1979-07-27 12:47:02.360 ,1,0,0.,12.0,0.,12.0,0.,12.0,0.,12.0
1979-07-27 12:47:14.360 ,0,1,0.,12.0,0.,12.0,0.,12.0,0.,12.0
1979-07-27 12:47:26.360 ,0,1,0.,12.0,0.,12.0,0.,12.0,0.,12.0
1979-07-27 12:47:38.360 ,0,0,0.,12.0,0.,12.0,0.,12.0,0.,12.0
1979-07-27 12:47:50.360 ,0,0,0.,12.0,0.,12.0,0.,12.0,0.,12.0
1979-07-27 12:48:02.360 ,0,1,0.,12.0,0.,12.0,0.,12.0,0.,12.0
1979-07-27 12:48:14.360 ,0,1,0.,12.0,0.,12.0,0.,12.0,0.,12.0
1979-07-27 12:48:26.360 ,0,0,0.,12.0,0.,12.0,0.,12.0,0.,12.0
1979-07-27 12:48:38.360 ,0,0,0.,12.0,0.,12.0,0.,12.0,0.,12.0
1979-07-27 12:48:50.360 ,1,1,0.,12.0,0.,12.0,0.,12.0,0.,12.0
1979-07-27 12:49:02.360 ,1,1,0.,12.0,0.,12.0,0.,12.0,0.,12.0
1979-07-27 12:49:14.360 ,1,0,0.,12.0,0.,12.0,0.,12.0,0.,12.0
1979-07-27 12:49:26.360 ,1,0,0.,12.0,0.,12.0,0.,12.0,0.,12.0
1979-07-27 12:49:38.360 ,2,1,0.,12.0,0.,12.0,0.,12.0,0.,12.0
1979-07-27 12:49:50.360 ,2,1,0.,12.0,0.,12.0,0.,12.0,0.,12.0
1979-07-27 12:50:02.360 ,2,0,0.,12.0,0.,12.0,0.,12.0,0.,12.0
1979-07-27 12:50:14.360 ,2,0,0.,12.0,0.,12.0,0.,12.0,0.,12.0
1979-07-27 12:50:26.360 ,3,1,0.,12.0,0.,12.0,0.,12.0,0.,12.0
1979-07-27 12:50:38.360 ,3,1,0.,12.0,0.,12.0,0.,12.0,0.,12.0
1979-07-27 12:50:50.360 ,3,0,0.,12.0,0.,12.0,0.,12.0,0.,12.0
1979-07-27 12:51:02.360 ,3,0,0.,12.0,0.,12.0,0.,12.0,0.,12.0
1979-07-27 12:51:14.360 ,4,1,0.,12.0,0.,12.0,0.,12.0,0.,12.0
1979-07-27 12:51:26.360 ,4,1,0.,12.0,0.,12.0,0.,12.0,0.,12.0
1979-07-27 12:51:38.360 ,4,0,0.,12.0,0.,12.0,0.,12.0,0.,12.0
1979-07-27 12:51:50.360 ,4,0,0.,12.0,0.,12.0,0.,12.0,0.,12.0
1979-07-27 12:52:02.360 ,5,1,0.,12.0,0.,12.0,0.,12.0,0.,12.0
1979-07-27 12:52:14.360 ,5,1,0.,12.0,0.,12.0,0.,12.0,0.,12.0
1979-07-27 12:52:26.360 ,5,0,0.,12.0,0.,12.0,0.,12.0,0.,12.0
1979-07-27 12:52:38.360 ,5,0,0.,12.0,0.,12.0,0.,12.0,0.,12.0
1979-07-27 12:52:50.360 ,6,1,0.,12.0,0.,12.0,0.,12.0,0.,12.0
1979-07-27 12:53:02.360 ,6,1,0.,12.0,0.,12.0,0.,12.0,0.,12.0
1979-07-27 12:53:14.360 ,6,0,0.,12.0,0.,12.0,0.,12.0,0.,12.0
1979-07-27 12:53:26.360 ,6,0,0.,12.0,0.,12.0,0.,12.0,0.,12.0
1979-07-27 12:53:38.360 ,7,1,0.,12.0,0.,12.0,0.,12.0,0.,12.0
1979-07-27 12:53:50.360 ,7,1,0.,12.0,0.,12.0,0.,12.0,0.,12.0
1979-07-27 12:54:02.360 ,7,0,0.,12.0,0.,12.0,0.,12.0,0.,12.0
1979-07-27 12:54:14.360 ,7,0,0.,12.0,0.,12.0,0.,12.0,0.,12.0
1979-07-27 12:54:26.360 ,7,1,0.,12.0,0.,12.0,0.,12.0,0.,12.0
1979-07-27 12:54:38.360 ,7,1,0.,12.0,0.,12.0,0.,12.0,0.,12.0
1979-07-27 12:54:50.360 ,7,0,0.,12.0,0.,12.0,0.,12.0,0.,12.0
1979-07-27 12:55:02.360 ,7,0,0.,12.0,0.,12.0,0.,12.0,0.,12.0
1979-07-27 12:55:14.360 ,6,1,0.,12.0,0.,12.0,0.,12.0,0.,12.0
1979-07-27 12:55:26.360 ,6,1,0.,12.0,0.,12.0,0.,12.0,0.,12.0
1979-07-27 12:55:38.360 ,6,0,0.,12.0,0.,12.0,0.,12.0,0.,12.0
1979-07-27 12:55:50.360 ,6,0,0.,12.0,0.,12.0,0.,12.0,0.,12.0
1979-07-27 12:56:02.360 ,5,1,0.,12.0,0.,12.0,0.,12.0,0.,12.0
1979-07-27 12:56:14.360 ,5,1,0.,12.0,0.,12.0,0.,12.0,0.,12.0
1979-07-27 12:56:26.360 ,5,0,0.,12.0,0.,12.0,0.,12.0,0.,12.0
1979-07-27 12:56:38.360 ,5,0,0.,12.0,0.,12.0,0.,12.0,0.,12.0
1979-07-27 12:56:50.360 ,4,1,0.,12.0,0.,12.0,0.,12.0,0.,12.0
1979-07-27 12:57:02.360 ,4,1,0.,12.0,0.,12.0,0.,12.0,0.,12.0
1979-07-27 12:57:14.360 ,4,0,0.,12.0,0.,12.0,0.,12.0,0.,12.0
1979-07-27 12:57:26.360 ,4,0,0.,12.0,0.,12.0,0.,12.0,0.,12.0
1979-07-27 12:57:38.360 ,3,1,0.,12.0,0.,12.0,0.,12.0,0.,12.0
1979-07-27 12:57:50.360 ,3,1,0.,12.0,0.,12.0,0.,12.0,0.,12.0
1979-07-27 12:58:02.360 ,3,0,0.,12.0,0.,12.0,0.,12.0,0.,12.0
1979-07-27 12:58:14.360 ,3,0,0.,12.0,0.,12.0,0.,12.0,0.,12.0
1979-07-27 12:58:26.360 ,2,1,0.,12.0,0.,12.0,0.,12.0,0.,12.0
1979-07-27 12:58:38.360 ,2,1,0.,12.0,0.,12.0,0.,12.0,0.,12.0
1979-07-27 12:58:50.360 ,2,0,0.,12.0,0.,12.0,0.,12.0,0.,12.0
1979-07-27 12:59:02.360 ,2,0,0.,12.0,0.,12.0,0.,12.0,0.,12.0
1979-07-27 12:59:14.360 ,1,1,0.,12.0,0.,12.0,0.,12.0,0.,12.0
1979-07-27 12:59:26.360 ,1,1,0.,12.0,0.,12.0,0.,12.0,0.,12.0
1979-07-27 12:59:38.360 ,1,0,0.,12.0,0.,12.0,0.,12.0,0.,12.0
1979-07-27 12:59:50.360 ,1,0,0.,12.0,0.,12.0,0.,12.0,0.,12.0
1979-07-27 13:00:02.360 ,0,1,0.,12.0,0.,12.0,0.,12.0,0.,12.0
1979-07-27 13:00:14.360 ,0,1,0.,12.0,0.,12.0,0.,12.0,0.,12.0
1979-07-27 13:00:26.360 ,0,0,0.,12.0,0.,12.0,0.,12.0,0.,12.0
1979-07-27 13:00:38.360 ,0,0,0.,12.0,0.,12.0,0.,12.0,0.,12.0
1979-07-27 13:00:50.360 ,0,1,0.,12.0,0.,12.0,0.,12.0,0.,12.0
1979-07-27 13:01:02.360 ,0,1,0.,12.0,0.,12.0,0.,12.0,0.,12.0
1979-07-27 13:01:14.360 ,0,0,0.,12.0,0.,12.0,0.,12.0,0.,12.0
1979-07-27 13:01:26.360 ,0,0,0.,12.0,0.,12.0,0.,12.0,0.,12.0
1979-07-27 13:01:38.360 ,1,1,0.,12.0,0.,12.0,0.,12.0,0.,12.0
1979-07-27 13:01:50.360 ,1,1,0.,12.0,0.,12.0,0.,12.0,0.,12.0
1979-07-27 13:02:02.360 ,1,0,0.,12.0,0.,12.0,0.,12.0,0.,12.0
1979-07-27 13:02:14.360 ,1,0,0.,12.0,0.,12.0,0.,12.0,0.,12.0
1979-07-27 13:02:26.360 ,2,1,0.,12.0,0.,12.0,0.,12.0,0.,12.0
1979-07-27 13:02:38.360 ,2,1,0.,12.0,0.,12.0,0.,12.0,0.,12.0
1979-07-27 13:02:50.360 ,2,0,0.,12.0,0.,12.0,0.,12.0,0.,12.0
1979-07-27 13:03:02.360 ,2,0,0.,12.0,0.,12.0,0.,12.0,0.,12.0
1979-07-27 13:03:14.360 ,3,1,0.,12.0,0.,12.0,0.,12.0,0.,12.0
1979-07-27 13:03:26.360 ,3,1,0.,12.0,0.,12.0,0.,12.0,0.,12.0
1979-07-27 13:03:38.360 ,3,0,0.,12.0,0.,12.0,0.,12.0,0.,12.0
1979-07-27 13:03:50.360 ,3,0,0.,12.0,0.,12.0,0.,12.0,0.,12.0
1979-07-27 13:04:02.360 ,4,1,0.,12.0,0.,12.0,0.,12.0,0.,12.0
1979-07-27 13:04:14.360 ,4,1,0.,12.0,0.,12.0,0.,12.0,0.,12.0
1979-07-27 13:04:26.360 ,4,0,0.,12.0,0.,12.0,0.,12.0,0.,12.0
1979-07-27 13:04:38.360 ,4,0,0.,12.0,0.,12.0,0.,12.0,0.,12.0
1979-07-27 13:04:50.360 ,5,1,0.,12.0,0.,12.0,0.,12.0,0.,12.0
1979-07-27 13:05:02.360 ,5,1,0.,12.0,0.,12.0,0.,12.0,0.,12.0
1979-07-27 13:05:14.360 ,5,0,0.,12.0,0.,12.0,0.,12.0,0.,12.0
1979-07-27 13:05:26.360 ,5,0,0.,12.0,0.,12.0,0.,12.0,0.,12.0
1979-07-27 13:05:38.360 ,6,1,0.,12.0,0.,12.0,0.,12.0,0.,12.0
1979-07-27 13:05:50.360 ,6,1,0.,12.0,0.,12.0,0.,12.0,0.,12.0
1979-07-27 13:06:02.360 ,6,0,0.,12.0,0.,12.0,0.,12.0,0.,12.0
1979-07-27 13:06:14.360 ,6,0,0.,12.0,0.,12.0,0.,12.0,0.,12.0
1979-07-27 13:06:26.360 ,7,0,0.,12.0,0.,12.0,0.,12.0,0.,12.0
1979-07-27 13:06:38.360 ,7,0,0.,12.0,0.,12.0,0.,12.0,0.,12.0
1979-07-27 13:06:50.360 ,7,0,0.,12.0,0.,12.0,0.,12.0,0.,12.0
1979-07-27 13:07:02.360 ,7,0,0.,12.0,0.,12.0,0.,12.0,0.,12.0
1979-07-27 13:07:14.360 ,4,1,0.,12.0,0.,12.0,0.,12.0,0.,12.0
1979-07-27 13:07:26.360 ,4,1,0.,12.0,0.,12.0,0.,12.0,0.,12.0
1979-07-27 13:07:38.360 ,0,1,0.,12.0,0.,12.0,0.,12.0,0.,12.0
1979-07-27 13:07:50.360 ,0,1,0.,12.0,0.,12.0,0.,12.0,0.,12.0
1979-07-27 13:08:02.360 ,3,1,0.,12.0,0.,12.0,0.,12.0,0.,12.0
1979-07-27 13:08:14.360 ,3,1,0.,12.0,0.,12.0,0.,12.0,0.,12.0
1979-07-27 13:08:26.360 ,7,1,0.,12.0,0.,12.0,0.,12.0,0.,12.0
1979-07-27 13:08:38.360 ,7,1,0.,12.0,0.,12.0,0.,12.0,0.,12.0
1979-07-27 13:08:50.350 ,4,1,0.,12.0,0.,12.0,0.,12.0,0.,12.0
1979-07-27 13:09:02.360 ,4,1,0.,12.0,0.,12.0,0.,12.0,0.,12.0
1979-07-27 13:09:14.350 ,0,1,0.,12.0,0.,12.0,0.,12.0,0.,12.0
1979-07-27 13:09:26.360 ,0,1,0.,12.0,0.,12.0,0.,12.0,0.,12.0
1979-07-27 13:09:38.350 ,3,1,0.,12.0,0.,12.0,0.,12.0,0.,12.0
1979-07-27 13:09:50.360 ,3,1,0.,12.0,0.,12.0,0.,12.0,0.,12.0
1979-07-27 13:10:02.350 ,7,1,0.,12.0,0.,12.0,0.,12.0,0.,12.0
1979-07-27 13:10:14.360 ,7,1,0.,12.0,0.,12.0,0.,12.0,0.,12.0
1979-07-27 13:10:26.350 ,4,1,0.,12.0,0.,12.0,0.,12.0,0.,12.0
1979-07-27 13:10:38.360 ,4,1,0.,12.0,0.,12.0,0.,12.0,0.,12.0
1979-07-27 13:10:50.350 ,0,1,0.,12.0,0.,12.0,0.,12.0,0.,12.0
1979-07-27 13:11:02.360 ,0,1,0.,12.0,0.,12.0,0.,12.0,0.,12.0
1979-07-27 13:11:14.350 ,3,1,0.,12.0,0.,12.0,0.,12.0,0.,12.0
1979-07-27 13:11:26.360 ,3,1,0.,12.0,0.,12.0,0.,12.0,0.,12.0
1979-07-27 13:11:38.350 ,7,1,0.,12.0,0.,12.0,0.,12.0,0.,12.0
1979-07-27 13:11:50.360 ,7,1,0.,12.0,0.,12.0,0.,12.0,0.,12.0
1979-07-27 13:12:02.350 ,4,1,0.,12.0,0.,12.0,0.,12.0,0.,12.0
1979-07-27 13:12:14.360 ,4,1,0.,12.0,0.,12.0,0.,12.0,0.,12.0
1979-07-27 13:12:26.350 ,0,1,0.,12.0,0.,12.0,0.,12.0,0.,12.0
1979-07-27 13:12:38.360 ,0,1,0.,12.0,0.,12.0,0.,12.0,0.,12.0
1979-07-27 13:12:50.350 ,3,1,0.,12.0,0.,12.0,0.,12.0,0.,12.0
1979-07-27 13:13:02.360 ,3,1,0.,12.0,0.,12.0,0.,12.0,0.,12.0
1979-07-27 13:13:14.350 ,7,1,0.,12.0,0.,12.0,0.,12.0,0.,12.0
1979-07-27 13:13:26.360 ,7,1,0.,12.0,0.,12.0,0.,12.0,0.,12.0
1979-07-27 13:13:38.350 ,4,1,0.,12.0,0.,12.0,0.,12.0,0.,12.0
1979-07-27 13:13:50.360 ,4,1,0.,12.0,0.,12.0,0.,12.0,0.,12.0
1979-07-27 13:14:02.350 ,0,1,0.,12.0,0.,12.0,0.,12.0,0.,12.0
1979-07-27 13:14:14.360 ,0,1,0.,12.0,0.,12.0,0.,12.0,0.,12.0
1979-07-27 13:14:26.350 ,3,1,0.,12.0,0.,12.0,0.,12.0,0.,12.0
1979-07-27 13:14:38.360 ,3,1,0.,12.0,0.,12.0,0.,12.0,0.,12.0
1979-07-27 13:14:50.350 ,7,1,0.,12.0,0.,12.0,0.,12.0,0.,12.0
1979-07-27 13:15:02.360 ,7,1,0.,12.0,0.,12.0,0.,12.0,0.,12.0
1979-07-27 13:15:14.350 ,4,1,0.,12.0,0.,12.0,0.,12.0,0.,12.0
1979-07-27 13:15:26.360 ,4,1,0.,12.0,0.,12.0,0.,12.0,0.,12.0
1979-07-27 13:15:38.350 ,0,1,0.,12.0,0.,12.0,0.,12.0,0.,12.0
1979-07-27 13:15:50.360 ,0,1,0.,12.0,0.,12.0,0.,12.0,0.,12.0
1979-07-27 13:16:02.350 ,3,1,0.,12.0,0.,12.0,0.,12.0,0.,12.0
1979-07-27 13:16:14.360 ,3,1,0.,12.0,0.,12.0,0.,12.0,0.,12.0
1979-07-27 13:16:26.350 ,7,1,0.,12.0,0.,12.0,0.,12.0,0.,12.0
1979-07-27 13:16:38.360 ,7,1,0.,12.0,0.,12.0,0.,12.0,0.,12.0
1979-07-27 13:16:50.350 ,4,1,0.,12.0,0.,12.0,0.,12.0,0.,12.0
1979-07-27 13:17:02.360 ,4,1,0.,12.0,0.,12.0,0.,12.0,0.,12.0
1979-07-27 13:17:14.350 ,0,1,0.,12.0,0.,12.0,0.,12.0,0.,12.0
1979-07-27 13:17:26.350 ,0,1,0.,12.0,0.,12.0,0.,12.0,0.,12.0